Change the Weather History Date:

Saturday, October 25, 2014

  Actual Average Record
Temperature  
Mean Temperature 46 °F -  
Max Temperature 60 °F 53 °F 82 °F (1989)
Min Temperature 33 °F 30 °F 16 °F (1933)
Degree Days  
Heating Degree Days 18    
Moisture  
Dew Point 30 °F    
Average Humidity 48    
Maximum Humidity 81    
Minimum Humidity 23    
Precipitation  
Precipitation 0.00 in - - ()
Sea Level Pressure  
Sea Level Pressure 30.00 in    
Wind  
Wind Speed 7 mph (WNW)    
Max Wind Speed 18 mph    
Max Gust Speed 28 mph    
Visibility 10 miles    
Events      
Averages and records for this station are not official NWS values.
T = Trace of Precipitation, MM = Missing Value Source: NWS Daily Summary

Daily Weather History Graph

Daily Weather History Graph

Search for Another Location

Airport or City:

Trip Planner

Search our weather history database for the weather conditions in past years. The results will help you decide how hot, cold, wet, or windy it might be!

Date:

Astronomy

Oct. 25, 2014 Rise Set
Actual Time 7:43 AM CDT 6:10 PM CDT
Civil Twilight 7:12 AM CDT 6:40 PM CDT
Nautical Twilight 6:38 AM CDT 7:15 PM CDT
Astronomical Twilight 6:03 AM CDT 7:49 PM CDT
Moon 9:27 AM CDT (10/25) 7:28 PM CDT (10/25)
Length of Visible Light 11h 27m
Length of Day
10h 26m
Waxing Crescent, 3% of the Moon is Illuminated
Oct 25
Waxing Crescent
Oct 30
First Quarter
Nov 6
Full
Nov 14
Last Quarter
Nov 22
New

Hourly Weather History & Observations

Time (CDT) Temp. Windchill Dew Point Humidity Pressure Visibility Wind Dir Wind Speed Gust Speed Precip Events Conditions
12:15 AM 53.6 °F - 39.2 °F 58% 29.88 in 10.0 mi West 4.6 mph - N/A   Clear
12:35 AM 55.4 °F - 37.4 °F 51% 29.89 in 10.0 mi WNW 6.9 mph - N/A   Clear
12:55 AM 55.4 °F - 37.4 °F 51% 29.89 in 10.0 mi WNW 5.8 mph - N/A   Clear
1:15 AM 53.6 °F - 35.6 °F 51% 29.90 in 10.0 mi West 5.8 mph - N/A   Clear
1:35 AM 53.6 °F - 35.6 °F 51% 29.90 in 10.0 mi WNW 4.6 mph - N/A   Clear
1:55 AM 53.6 °F - 33.8 °F 47% 29.91 in 10.0 mi WNW 8.1 mph - N/A   Clear
2:15 AM 51.8 °F - 33.8 °F 50% 29.92 in 10.0 mi West 5.8 mph - N/A   Clear
2:35 AM 50.0 °F - 33.8 °F 54% 29.93 in 10.0 mi West 5.8 mph - N/A   Clear
2:55 AM 50.0 °F - 33.8 °F 54% 29.93 in 10.0 mi West 6.9 mph - N/A   Clear
3:15 AM 50.0 °F - 32.0 °F 50% 29.93 in 10.0 mi West 6.9 mph - N/A   Clear
3:35 AM 50.0 °F - 32.0 °F 50% 29.93 in 10.0 mi West 5.8 mph - N/A   Clear
3:54 AM 50.0 °F - 32.0 °F 50% 29.94 in 10.0 mi West 5.8 mph - N/A   Clear
4:15 AM 50.0 °F - 32.0 °F 50% 29.94 in 10.0 mi West 8.1 mph - N/A   Clear
4:35 AM 50.0 °F - 32.0 °F 50% 29.95 in 10.0 mi West 6.9 mph - N/A   Clear
4:55 AM 50.0 °F - 32.0 °F 50% 29.95 in 10.0 mi West 8.1 mph - N/A   Clear
5:15 AM 50.0 °F - 33.8 °F 54% 29.95 in 10.0 mi West 5.8 mph - N/A   Clear
5:35 AM 50.0 °F - 33.8 °F 54% 29.96 in 10.0 mi West 8.1 mph - N/A   Clear
5:55 AM 48.2 °F - 32.0 °F 54% 29.96 in 10.0 mi West 4.6 mph - N/A   Clear
6:15 AM 46.4 °F 43.5 °F 32.0 °F 57% 29.96 in 10.0 mi West 5.8 mph - N/A   Clear
6:35 AM 46.4 °F 42.9 °F 32.0 °F 57% 29.97 in 10.0 mi West 6.9 mph - N/A   Clear
6:55 AM 44.6 °F 40.7 °F 32.0 °F 61% 29.97 in 10.0 mi West 6.9 mph - N/A   Clear
7:15 AM 44.6 °F 41.4 °F 32.0 °F 61% 29.98 in 10.0 mi WNW 5.8 mph - N/A   Clear
7:35 AM 44.6 °F 40.7 °F 32.0 °F 61% 29.99 in 10.0 mi WNW 6.9 mph - N/A   Clear
7:55 AM 44.6 °F 40.7 °F 32.0 °F 61% 30.00 in 10.0 mi WNW 6.9 mph - N/A   Clear
8:15 AM 44.6 °F 40.2 °F 32.0 °F 61% 30.00 in 10.0 mi WNW 8.1 mph - N/A   Clear
8:35 AM 44.6 °F 39.7 °F 32.0 °F 61% 30.01 in 10.0 mi WNW 9.2 mph - N/A   Clear
8:55 AM 46.4 °F 42.4 °F 32.0 °F 57% 30.02 in 10.0 mi WNW 8.1 mph - N/A   Clear
9:15 AM 48.2 °F - 32.0 °F 54% 30.02 in 10.0 mi WNW 8.1 mph - N/A   Clear
9:34 AM 50.0 °F - 33.8 °F 54% 30.02 in 10.0 mi WNW 11.5 mph - N/A   Clear
9:55 AM 50.0 °F - 33.8 °F 54% 30.03 in 10.0 mi NW 9.2 mph - N/A   Clear
10:15 AM 50.0 °F - 32.0 °F 50% 30.03 in 10.0 mi WNW 12.7 mph 18.4 mph N/A   Clear
10:35 AM 53.6 °F - 32.0 °F 44% 30.03 in 10.0 mi NW 15.0 mph 18.4 mph N/A   Clear
10:55 AM 53.6 °F - 32.0 °F 44% 30.03 in 10.0 mi WNW 10.4 mph 21.9 mph N/A   Clear
11:15 AM 53.6 °F - 30.2 °F 41% 30.03 in 10.0 mi WNW 12.7 mph 20.7 mph N/A   Clear
11:35 AM 55.4 °F - 30.2 °F 38% 30.02 in 10.0 mi WNW 16.1 mph 24.2 mph N/A   Clear
11:55 AM 55.4 °F - 28.4 °F 36% 30.02 in 10.0 mi NW 13.8 mph 20.7 mph N/A   Clear
12:15 PM 55.4 °F - 28.4 °F 36% 30.02 in 10.0 mi NW 12.7 mph 25.3 mph N/A   Clear
12:35 PM 57.2 °F - 26.6 °F 31% 30.02 in 10.0 mi WNW 15.0 mph 24.2 mph N/A   Clear
12:55 PM 59.0 °F - 26.6 °F 29% 30.02 in 10.0 mi NW 12.7 mph 20.7 mph N/A   Clear
1:15 PM 59.0 °F - 26.6 °F 29% 30.01 in 10.0 mi WNW 13.8 mph 20.7 mph N/A   Clear
1:34 PM 59.0 °F - 26.6 °F 29% 30.01 in 10.0 mi WNW 12.7 mph 16.1 mph N/A   Clear
1:55 PM 60.8 °F - 26.6 °F 27% 30.01 in 10.0 mi WNW 18.4 mph 24.2 mph N/A   Clear
2:15 PM 60.8 °F - 26.6 °F 27% 30.01 in 10.0 mi NW 17.3 mph 26.5 mph N/A   Clear
2:35 PM 60.8 °F - 23.0 °F 23% 30.02 in 10.0 mi NW 18.4 mph 27.6 mph N/A   Clear
2:55 PM 59.0 °F - 23.0 °F 25% 30.01 in 10.0 mi WNW 16.1 mph 27.6 mph N/A   Clear
3:15 PM 59.0 °F - 23.0 °F 25% 30.01 in 10.0 mi WNW 13.8 mph 25.3 mph N/A   Clear
3:35 PM 60.8 °F - 24.8 °F 25% 30.02 in 10.0 mi WNW 15.0 mph 20.7 mph N/A   Clear
3:55 PM 59.0 °F - 24.8 °F 27% 30.02 in 10.0 mi WNW 13.8 mph 21.9 mph N/A   Clear
4:15 PM 59.0 °F - 21.2 °F 23% 30.02 in 10.0 mi NNW 16.1 mph 24.2 mph N/A   Clear
4:35 PM 59.0 °F - 23.0 °F 25% 30.02 in 10.0 mi NW 12.7 mph - N/A   Clear
4:55 PM 59.0 °F - 23.0 °F 25% 30.03 in 10.0 mi NW 11.5 mph 18.4 mph N/A   Clear
5:15 PM 55.4 °F - 21.2 °F 26% 30.03 in 10.0 mi NW 12.7 mph 24.2 mph N/A   Clear
5:35 PM 55.4 °F - 23.0 °F 29% 30.03 in 10.0 mi NW 12.7 mph 17.3 mph N/A   Clear
5:55 PM 53.6 °F - 23.0 °F 30% 30.04 in 10.0 mi NW 8.1 mph - N/A   Clear
6:15 PM 53.6 °F - 23.0 °F 30% 30.04 in 10.0 mi NW 8.1 mph - N/A   Clear
6:35 PM 53.6 °F - 23.0 °F 30% 30.04 in 10.0 mi WNW 4.6 mph - N/A   Clear
6:55 PM 50.0 °F - 23.0 °F 35% 30.04 in 10.0 mi WNW 5.8 mph - N/A   Clear
7:15 PM 50.0 °F - 26.6 °F 40% 30.04 in 10.0 mi West 4.6 mph - N/A   Clear
7:35 PM 48.2 °F - 26.6 °F 43% 30.05 in 10.0 mi West 3.5 mph - N/A   Clear
7:55 PM 46.4 °F 45.2 °F 28.4 °F 50% 30.04 in 10.0 mi West 3.5 mph - N/A   Clear
8:15 PM 42.8 °F 41.1 °F 32.0 °F 66% 30.04 in 10.0 mi WNW 3.5 mph - N/A   Clear
8:35 PM 42.8 °F - 32.0 °F 66% 30.04 in 10.0 mi Calm Calm - N/A   Clear
8:55 PM 44.6 °F 42.2 °F 26.6 °F 49% 30.04 in 10.0 mi West 4.6 mph - N/A   Clear
9:15 PM 41.0 °F - 28.4 °F 61% 30.05 in 10.0 mi Calm Calm - N/A   Clear
9:34 PM 42.8 °F - 30.2 °F 61% 30.05 in 10.0 mi Calm Calm - N/A   Clear
9:55 PM 39.2 °F - 26.6 °F 61% 30.05 in 10.0 mi Calm Calm - N/A   Clear
10:15 PM 39.2 °F - 30.2 °F 70% 30.05 in 10.0 mi Calm Calm - N/A   Clear
10:35 PM 39.2 °F 37.0 °F 28.4 °F 65% 30.05 in 10.0 mi WSW 3.5 mph - N/A   Clear
10:55 PM 35.6 °F - 28.4 °F 75% 30.05 in 10.0 mi Calm Calm - N/A   Clear
11:15 PM 35.6 °F - 28.4 °F 75% 30.05 in 10.0 mi Calm Calm - N/A   Clear
11:35 PM 33.8 °F - 28.4 °F 81% 30.05 in 10.0 mi Calm Calm - N/A   Clear
11:55 PM 33.8 °F - 28.4 °F 81% 30.04 in 10.0 mi Calm Calm - N/A   Clear